• Join FlightAware (Why Join?)
  • Login
  • US Flag 
07:02PM EDT


 

Airport Tracker/Info


-or-


 

Live Flight TrackerFlight Track Log ✈ N2352Y ✈ 08-Jul-2013 ✈ KLMS - KBHM

Flight Track Log - Related Links

Times and Time Zones

All times are in EDT time to prevent confusion due to time zone crossing. See the N2352Y flight status page for this flight to view local times or setup timezone preferences in your user account.

Time Position Orientation Groundspeed Altitude Reporting Facility
EDT Latitude Longitude Course Direction KTS MPH feet Rate Location/Type
01:55PM 33.1969 -89.0067 77° East 184 212 2,900  Level Memphis Center
01:56PM 33.2217 -88.9767 45° Northeast 149 171 4,100 1,080 Climbing Memphis Center
01:57PM 33.2317 -88.9542 62° Northeast 129 148 4,700 900 Climbing Memphis Center
01:57PM 33.2461 -88.9239 60° Northeast 136 157 5,300 900 Climbing Memphis Center
01:58PM 33.2561 -88.8964 66° East 131 151 6,000 840 Climbing Memphis Center
01:59PM 33.2639 -88.8492 79° East 131 151 6,800 480 Climbing Memphis Center
02:00PM 33.1989 -88.7245 80° East  Level FlightAware Approximate
02:00PM 33.2717 -88.7944 80° East 141 162 7,000  Level Memphis Center
02:01PM 33.2027 -88.6690 77° East  Level FlightAware Approximate
02:01PM 33.2833 -88.7319 77° East 167 192 7,000  Level Memphis Center
02:02PM 33.2931 -88.6697 79° East 181 208 7,000  Level Memphis Center
02:03PM 33.3067 -88.6025 76° East 188 216 7,000  Level Memphis Center
02:04PM 33.3183 -88.5400 77° East 193 222 7,000  Level Memphis Center
02:05PM 33.3197 -88.5053 87° East 203 234 7,000 60 Level Memphis Center
02:05PM 33.3278 -88.4728 73° East 198 228 7,100 60 Climbing Memphis Center
02:06PM 33.3350 -88.4053 83° East 198 228 7,100  Level Memphis Center
02:07PM 33.3444 -88.3406 80° East 198 228 7,100 -120 Level Memphis Center
02:08PM 33.3458 -88.3031 87° East 200 230 7,000 -120 Descending Memphis Center
02:09PM 33.3572 -88.2406 78° East 200 230 7,000  Level Memphis Center
02:10PM 33.3728 -88.1708 75° East 201 231 7,000  Level Memphis Center
02:11PM 33.3947 -88.1106 66° East 200 230 7,000  Level Memphis Center
02:12PM 33.4081 -88.0406 77° East 199 229 7,000  Level Memphis Center
02:13PM 33.4150 -87.9706 83° East 199 229 7,000  Level Memphis Center
02:14PM 33.4117 -87.9058 94° East 201 231 7,000  Level Memphis Center
02:16PM 33.4317 -87.7475 81° East 204 235 7,100  Climbing Atlanta Center
02:17PM 33.4397 -87.6808 82° East 204 235 7,100  Level Atlanta Center
02:18PM 33.4503 -87.6114 80° East 204 235 7,100 -120 Level Atlanta Center
02:19PM 33.4583 -87.5519 81° East 202 232 6,900 -420 Descending Atlanta Center
02:20PM 33.4664 -87.4878 81° East 211 243 6,400 -480 Descending Atlanta Center
02:21PM 33.4767 -87.4133 81° East 212 244 6,000 -240 Descending Atlanta Center
02:22PM 33.4889 -87.3442 78° East 196 226 6,000  Level Atlanta Center
02:23PM 33.4992 -87.2797 79° East 188 216 6,000  Level Atlanta Center
02:25PM 33.5078 -87.2103 75° East  Level Estimated
02:25PM 33.5333 -87.1614 75° East 189 217 6,000  Level Atlanta Center
02:26PM 33.5331 -87.0967 90° East 190 219 6,000  Level Atlanta Center
02:27PM 33.5408 -87.0369 81° East 187 215 6,000 -120 Level Atlanta Center
02:28PM 33.5525 -86.9778 77° East 185 213 5,800 -480 Descending Atlanta Center
02:29PM 33.5731 -86.9111 70° East 194 223 5,000 -420 Descending Atlanta Center
02:31PM 33.6056 -86.8522 56° Northeast 189 217 5,000 -60 Level Atlanta Center
02:31PM 33.6317 -86.8031 57° Northeast 190 219 4,900 -480 Descending Atlanta Center
02:33PM 33.6706 -86.7469 50° Northeast 198 228 4,100 -480 Descending Atlanta Center
02:34PM 33.6944 -86.7003 58° Northeast 174 200 4,000 -240 Descending Atlanta Center
02:35PM 33.6958 -86.6431 88° East 162 186 3,700 -600 Descending Atlanta Center
02:36PM 33.6697 -86.5972 124° Southeast 177 204 2,900 -840 Descending Atlanta Center